AirNav   Everest Fuels
 
 1625 users online  

NH86 Intervale Airport
Henniker, New Hampshire, USA

GOING TO HENNIKER?


FAA INFORMATION EFFECTIVE 22 APRIL 2021

Location

FAA Identifier: NH86
Lat/Long: 43-10-30.2900N 071-47-14.2800W
43-10.504833N 071-47.238000W
43.1750806,-71.7873000
(estimated)
Elevation: 425 ft. / 130 m (estimated)
Variation: 16W (1995)
From city: 2 miles E of HENNIKER, NH
Time zone: UTC -4 (UTC -5 during Standard Time)
Zip code: 03242

Airport Operations

Airport use: Private use. Permission required prior to landing
Activation date: 07/2000
Control tower: no
ARTCC: BOSTON CENTER
FSS: BANGOR FLIGHT SERVICE STATION
Attendance: UNATNDD
Wind indicator: yes
Segmented circle: no
Lights: FOR LIRL RY 14/32 CALL 603-938-2529; ACTVT ON FREQ 122.75.

Airport Communications

WX ASOS at CON (13 nm E): 132.325 (603-224-6558)

Nearby radio navigation aids

VOR radial/distance  VOR name  Freq  Var
CONr269/9.6CONCORD VOR/DME112.9015W
MHTr330/26.0MANCHESTER VOR/DME114.4015W
EENr058/31.8KEENE VORTAC109.4014W
LEBr163/35.5LEBANON VOR/DME113.7015W
GDMr032/39.6GARDNER VOR/DME110.6014W

 
NDB name  Hdg/Dist  Freq  Var  ID
CLAREMONT131/28.023316WCNH -.-. -. ....
HANOVER167/35.927615WLAH .-.. .- ....

Airport Services

Runway Information

Runway 14/32

Dimensions: 2100 x 45 ft. / 640 x 14 m
Surface: asphalt, in good condition
Runway edge lights: low intensity
RUNWAY 14  RUNWAY 32
Traffic pattern: leftleft

Airport Ownership and Management from official FAA records

Ownership: Privately-owned
Owner: WEST END LLC
P.O. BOX 850
PORTSMOUTH, NH 03802
Phone (603) 380-4979
Manager: GREG BOURDON
P.O. BOX 850
PORTSMOUTH, NH 03802
Phone (603) 380-4979

Airport Operational Statistics

Aircraft based on the field: 4
Single engine airplanes: 4
    

Additional Remarks

LAND RY 32; DEPART RY 14.
AVOID OVERFLYING THE SCHOOLS IN THE CTR OF TOWN, EAST OF ARPT.
900 FT HILL 1 MI SW OF RY; AND 1,000 FT TWR 1.6 MI SW OF RY.
FOR CD CTC BOSTON APCH AT 603-594-5551.

Instrument Procedures

There are no published instrument procedures at NH86.

Some nearby airports with instrument procedures:

KCON - Concord Municipal Airport (13 nm E)
KMHT - Manchester Airport (21 nm SE)
2B3 - Parlin Field Airport (22 nm NW)
KAFN - Jaffrey/Silver Ranch Airport (24 nm SW)
KASH - Boire Field Airport (26 nm SE)
 
Loc | Ops | Rwys | IFR | FBO | Links
Com | Nav | Svcs | Stats | Notes
Area around NH86 (Intervale Airport)
 
Road maps at: MapQuest Bing Google
 
Aerial photo
WARNING: Photo may not be current or correct
Aerial photo of NH86 (Intervale Airport)
Taken in May 2009

Do you have a better or more recent aerial photo of Intervale Airport that you would like to share? If so, please send us your photo.

 
Sectional chart

 
Airport distance calculator
Flying to Intervale Airport? Find the distance to fly.

From to NH86

Sunrise and sunset
Times for 13-May-2021
 Local
(UTC-4)
 Zulu
(UTC)
Morning civil twilight04:5408:54
Sunrise05:2709:27
Sunset20:0000:00
Evening civil twilight20:3300:33

Current date and time
Zulu (UTC)  13-May-2021 14:07:27
Local (UTC-4)  13-May-2021 10:07:27
 
METAR
KCON 
13nm E 
131351Z AUTO 31011KT 10SM CLR 17/M01 A3017 RMK AO2 SLP215 T01721006
KMHT 
21nm SE 
131353Z 36011KT 10SM FEW080 18/M02 A3015 RMK AO2 SLP222 T01831017
KAFN 
24nm SW 
131352Z AUTO VRB05KT 10SM CLR 16/M03 A3017 RMK AO2 SLP226 T01561028
TAF
KCON 
13nm E 
131120Z 1312/1412 00000KT P6SM BKN120 FM131300 31012KT P6SM SCT100 FM140200 00000KT P6SM SKC
NOTAMs
Click for the latest NOTAMs
NOTAMs are issued by the DoD/FAA and will open in a separate window not controlled by AirNav.

 

 
 

Would you like to see your business listed on this page?

 If your business provides an interesting product or service to pilots, flight crews, aircraft, or users of the Intervale Airport, you should consider listing it here.  To start the listing process, click on the button below
 
Add a business
 

Other Pages about Intervale Airport

Update a link
 
Copyright © AirNav, LLC. All rights reserved. Privacy Policy  Contact